EN

Hourly Weather Parwolki

Today, 28 February, Sunday

Time Temperature Precipitation Wind Pressure Humidity
00:00 -1°C° 0 mm 3 mps 761 mmHg 86%
01:00 0°C° 0 mm 3 mps 761 mmHg 84%
02:00 0°C° 0 mm 3 mps 761 mmHg 84%
03:00 0°C° 0 mm 3 mps 760 mmHg 84%
04:00 0°C° 0 mm 3 mps 760 mmHg 84%
05:00 0°C° 0 mm 3 mps 760 mmHg 88%
06:00 -1°C° 0 mm 4 mps 760 mmHg 92%
07:00 -1°C° 0 mm 4 mps 760 mmHg 96%
08:00 -1°C° 0 mm 4 mps 760 mmHg 95%
09:00 0°C° 0 mm 5 mps 759 mmHg 93%
10:00 +1°C° 0 mm 6 mps 759 mmHg 92%
11:00 +1°C° 0 mm 5 mps 759 mmHg 89%
12:00 +2°C° 0 mm 5 mps 759 mmHg 87%
13:00 +2°C° 0 mm 5 mps 759 mmHg 84%
14:00 +2°C° 0 mm 5 mps 759 mmHg 84%
15:00 +2°C° 0 mm 5 mps 759 mmHg 84%
16:00 +2°C° 0 mm 5 mps 759 mmHg 84%
17:00 +1°C° 0 mm 4 mps 759 mmHg 87%
18:00 +1°C° 0 mm 4 mps 760 mmHg 90%
19:00 0°C° 0 mm 4 mps 760 mmHg 93%
20:00 0°C° 0 mm 4 mps 760 mmHg 93%
21:00 0°C° 0 mm 4 mps 760 mmHg 93%
22:00 0°C° 0 mm 4 mps 761 mmHg 93%
23:00 0°C° 0 mm 3 mps 761 mmHg 93%

Tomorrow, 1 March, Monday

Time Temperature Precipitation Wind Pressure Humidity
00:00 0°C° 0 mm 3 mps 761 mmHg 93%
01:00 0°C° 0 mm 3 mps 762 mmHg 93%
02:00 0°C° 0 mm 3 mps 762 mmHg 93%
03:00 +1°C° 0 mm 2 mps 762 mmHg 93%
04:00 -1°C° 0 mm 2 mps 761 mmHg 94%
05:00 +1°C° 0 mm 2 mps 762 mmHg 93%
06:00 +1°C° 0 mm 2 mps 762 mmHg 93%
07:00 +1°C° 0 mm 2 mps 762 mmHg 93%
08:00 +2°C° 0 mm 2 mps 762 mmHg 87%
09:00 +4°C° 0 mm 2 mps 762 mmHg 81%
10:00 +6°C° 0 mm 2 mps 762 mmHg 74%
11:00 +7°C° 0 mm 2 mps 762 mmHg 71%
12:00 +8°C° 0 mm 3 mps 762 mmHg 68%
13:00 +9°C° 0 mm 3 mps 763 mmHg 65%
14:00 +9°C° 0 mm 3 mps 762 mmHg 66%
15:00 +7°C° 0 mm 4 mps 762 mmHg 67%
16:00 +7°C° 0 mm 4 mps 761 mmHg 69%
17:00 +6°C° 0 mm 4 mps 761 mmHg 74%
18:00 +5°C° 0 mm 4 mps 761 mmHg 79%
19:00 +4°C° 0 mm 4 mps 761 mmHg 84%
20:00 +4°C° 0 mm 4 mps 761 mmHg 85%
21:00 +3°C° 0 mm 4 mps 761 mmHg 87%
22:00 +3°C° 0 mm 4 mps 760 mmHg 88%
23:00 +1°C° 0 mm 4 mps 760 mmHg 89%

Day after tomorrow, 2 March, Tuesday

Time Temperature Precipitation Wind Pressure Humidity
00:00 +1°C° 0 mm 4 mps 760 mmHg 89%
01:00 0°C° 0 mm 4 mps 760 mmHg 90%
02:00 0°C° 0 mm 4 mps 760 mmHg 91%
03:00 0°C° 0 mm 4 mps 759 mmHg 92%
04:00 0°C° 0 mm 4 mps 759 mmHg 93%
05:00 -1°C° 0 mm 4 mps 759 mmHg 94%
06:00 -1°C° 0 mm 4 mps 759 mmHg 94%
07:00 -1°C° 0 mm 4 mps 759 mmHg 95%
08:00 0°C° 0 mm 4 mps 759 mmHg 91%
09:00 +3°C° 0 mm 4 mps 759 mmHg 88%
10:00 +4°C° 0 mm 4 mps 759 mmHg 85%
11:00 +5°C° 0 mm 4 mps 760 mmHg 81%
12:00 +6°C° 0 mm 4 mps 760 mmHg 78%
13:00 +7°C° 0 mm 4 mps 760 mmHg 74%
14:00 +7°C° 0 mm 4 mps 760 mmHg 75%
15:00 +8°C° 0 mm 3 mps 760 mmHg 75%
16:00 +7°C° 0 mm 3 mps 759 mmHg 76%
17:00 +5°C° 0 mm 3 mps 760 mmHg 81%
18:00 +5°C° 0 mm 2 mps 760 mmHg 87%
19:00 +3°C° 0 mm 2 mps 760 mmHg 92%
20:00 +3°C° 0 mm 2 mps 760 mmHg 93%
21:00 +2°C° 0 mm 2 mps 760 mmHg 94%
22:00 +1°C° 0 mm 2 mps 761 mmHg 95%
23:00 +2°C° 0 mm 1 mps 761 mmHg 95%

3 March, Wednesday

Time Temperature Precipitation Wind Pressure Humidity
00:00 +2°C° 0 mm 1 mps 761 mmHg 95%
01:00 +1°C° 0 mm 1 mps 761 mmHg 95%
02:00 +1°C° 0 mm 1 mps 761 mmHg 95%
03:00 +1°C° 0 mm 1 mps 760 mmHg 94%
04:00 0°C° 0 mm 0 mps 760 mmHg 94%
05:00 0°C° 0 mm 0 mps 760 mmHg 93%
06:00 0°C° 0 mm 0 mps 760 mmHg 92%
07:00 +1°C° 0 mm 0 mps 760 mmHg 91%
08:00 +2°C° 0 mm 0 mps 760 mmHg 84%
09:00 +4°C° 0 mm 0 mps 760 mmHg 77%
10:00 +6°C° 0 mm 1 mps 760 mmHg 70%
11:00 +7°C° 0 mm 1 mps 760 mmHg 67%
12:00 +8°C° 0 mm 1 mps 759 mmHg 64%
13:00 +8°C° 0 mm 2 mps 759 mmHg 61%
14:00 +8°C° 0 mm 2 mps 758 mmHg 64%
15:00 +8°C° 0 mm 2 mps 757 mmHg 66%
16:00 +7°C° 0 mm 2 mps 757 mmHg 69%
17:00 +6°C° 0 mm 2 mps 756 mmHg 74%
18:00 +5°C° 0 mm 2 mps 756 mmHg 80%
19:00 +3°C° 0 mm 2 mps 755 mmHg 85%
20:00 +3°C° 0 mm 2 mps 755 mmHg 85%
21:00 +3°C° 0 mm 2 mps 754 mmHg 85%
22:00 +1°C° 0 mm 3 mps 754 mmHg 85%
23:00 +1°C° 0 mm 3 mps 753 mmHg 85%

4 March, Thursday

Time Temperature Precipitation Wind Pressure Humidity
00:00 +1°C° 0 mm 3 mps 752 mmHg 86%
01:00 +1°C° 0 mm 3 mps 752 mmHg 87%
02:00 +1°C° 0 mm 3 mps 751 mmHg 88%
03:00 0°C° 0 mm 3 mps 750 mmHg 90%
04:00 0°C° 0 mm 3 mps 750 mmHg 92%
05:00 0°C° 0 mm 3 mps 749 mmHg 93%
06:00 0°C° 0 mm 3 mps 749 mmHg 94%
07:00 0°C° 0 mm 3 mps 748 mmHg 95%
08:00 +2°C° 0 mm 3 mps 748 mmHg 90%
09:00 +3°C° 0 mm 4 mps 747 mmHg 86%
10:00 +5°C° 0 mm 4 mps 747 mmHg 82%
11:00 +5°C° 0 mm 4 mps 746 mmHg 78%
12:00 +6°C° 0 mm 4 mps 746 mmHg 74%
13:00 +7°C° 0 mm 5 mps 746 mmHg 70%
14:00 +6°C° 0.2 mm 4 mps 745 mmHg 75%
15:00 +5°C° 0.2 mm 4 mps 745 mmHg 80%
16:00 +5°C° 0.2 mm 3 mps 744 mmHg 85%
17:00 +4°C° 0.3 mm 3 mps 744 mmHg 87%
18:00 +4°C° 0.3 mm 3 mps 744 mmHg 90%
19:00 +4°C° 0.3 mm 2 mps 744 mmHg 92%
20:00 +2°C° 0.1 mm 3 mps 744 mmHg 93%
21:00 0°C° 0.1 mm 4 mps 744 mmHg 94%
22:00 0°C° 0.1 mm 4 mps 744 mmHg 95%
23:00 -1°C° 0.1 mm 5 mps 744 mmHg 91%

5 March, Friday

Time Temperature Precipitation Wind Pressure Humidity
00:00 -2°C° 0.1 mm 5 mps 744 mmHg 88%
01:00 -4°C° 0.1 mm 5 mps 745 mmHg 85%
02:00 -4°C° 0 mm 5 mps 745 mmHg 80%
03:00 -5°C° 0 mm 5 mps 745 mmHg 75%
04:00 -5°C° 0 mm 5 mps 746 mmHg 70%
05:00 -5°C° 0 mm 5 mps 747 mmHg 68%
06:00 -5°C° 0 mm 5 mps 747 mmHg 67%
07:00 -6°C° 0 mm 5 mps 748 mmHg 66%
08:00 -5°C° 0 mm 6 mps 748 mmHg 58%
09:00 -4°C° 0 mm 6 mps 749 mmHg 51%
10:00 -4°C° 0 mm 6 mps 749 mmHg 44%
11:00 -3°C° 0 mm 6 mps 750 mmHg 40%
12:00 -2°C° 0 mm 6 mps 750 mmHg 37%
13:00 -1°C° 0 mm 5 mps 750 mmHg 34%
14:00 -1°C° 0 mm 5 mps 751 mmHg 41%
15:00 -2°C° 0 mm 5 mps 751 mmHg 48%
16:00 -2°C° 0 mm 5 mps 751 mmHg 55%
17:00 -3°C° 0 mm 4 mps 752 mmHg 58%
18:00 -3°C° 0 mm 4 mps 752 mmHg 61%
19:00 -4°C° 0 mm 3 mps 753 mmHg 65%
20:00 -4°C° 0 mm 3 mps 753 mmHg 64%
21:00 -4°C° 0 mm 3 mps 754 mmHg 64%
22:00 -4°C° 0 mm 3 mps 754 mmHg 63%
23:00 -5°C° 0 mm 3 mps 754 mmHg 63%
Show more

We Need Your Consent

Meteoprog and our Service Providers may store and access personal data such as cookies, device identifiers or other similar technologies on your device and process such data to personalise content and ads, as well as provide social media features and to analyse the traffic.

  • Store and/or access information on your device

    Cookies, device identifiers or other information can be stored or accessed on your device for the purposes indicated above.

  • Personalised ads and content, ad and content measurement, audience insights, and products development

    Ads and content can be personalised based on a profile. More data can be added to better personalise ads and content. Ad and content performance can be measured. Insights about the audience who saw the ads and content can be derived. Such data can be used to develop or improve user’s experience, systems and software.

By clicking ‘I Agree’ you will allow the use of indicated cookies, device identifiers, web beacons or other similar technologies. Your settings can be changed in the browser on your device.

For certain purposes, legitimate interests may be relied on, rather than consent. You can read more about this in our Privacy and Cookie Policy.